GW5851 Weather Reports


time (UTC)temp
C
wind
direction
speed
KPH
gust
KPH
rain 1hr
cm
rain 24hr
cm
rain mn
cm
humidity
%
barometer
mb
20260507003656 10 222 0.0 1.6 0.00 0.00 0.00 50 979.0
20260507003200 10 238 0.0 1.6 0.00 0.00 0.00 50 979.0
20260507002658 10 246 0.0 1.6 0.00 0.00 0.00 51 979.0
20260507002158 10 245 1.6 1.6 0.00 0.00 0.00 50 979.0
20260507001656 10 233 0.0 3.2 0.00 0.00 0.00 50 979.0
20260507001157 10 240 1.6 1.6 0.00 0.00 0.00 52 979.0
20260507000700 10 242 0.0 0.0 0.00 0.00 0.00 53 979.0
20260507000159 10 242 0.0 0.0 0.00 0.00 0.00 50 979.0
20260506235700 10 242 0.0 0.0 0.00 0.00 0.00 48 979.0
20260506235158 10 242 0.0 0.0 0.00 0.00 0.00 47 979.0
20260506234659 10 242 0.0 1.6 0.00 0.00 0.00 46 979.0
20260506234157 10 215 0.0 0.0 0.00 0.00 0.00 48 979.0
20260506233656 11 251 1.6 3.2 0.00 0.00 0.00 45 979.0
20260506233158 11 242 0.0 1.6 0.00 0.00 0.00 47 979.0
20260506232657 11 217 0.0 0.0 0.00 0.00 0.00 47 979.0
20260506232159 11 263 0.0 1.6 0.00 0.00 0.00 44 979.0
20260506231655 11 249 0.0 1.6 0.00 0.00 0.00 47 978.0
20260506231155 11 352 0.0 1.6 0.00 0.00 0.00 45 978.0
20260506230655 11 219 0.0 1.6 0.00 0.00 0.00 46 978.0
20260506230158 11 294 1.6 1.6 0.00 0.00 0.00 47 978.0
20260506225655 11 296 1.6 1.6 0.00 0.00 0.00 45 978.0
20260506225155 11 276 0.0 1.6 0.00 0.00 0.00 45 978.0
20260506224658 11 308 3.2 6.4 0.00 0.00 0.00 45 979.0
20260506224156 11 265 8.0 11.3 0.00 0.00 0.00 43 978.0
20260506223657 11 228 1.6 4.8 0.00 0.00 0.00 43 978.0
20260506223157 11 325 4.8 9.7 0.00 0.00 0.00 42 978.0
20260506222657 11 297 1.6 3.2 0.00 0.00 0.00 45 979.0
20260506222157 11 247 3.2 4.8 0.00 0.00 0.00 44 978.0
20260506221657 11 291 1.6 4.8 0.00 0.00 0.00 45 979.0
20260506221158 12 354 3.2 6.4 0.00 0.00 0.00 43 979.0
20260506220657 12 266 8.0 9.7 0.00 0.00 0.00 44 979.0
20260506220157 12 267 1.6 6.4 0.00 0.00 0.00 43 979.0
20260506215659 12 3 3.2 6.4 0.00 0.00 0.00 42 979.0
20260506215155 12 302 6.4 6.4 0.00 0.00 0.00 41 979.0
20260506214657 12 261 0.0 9.7 0.00 0.00 0.00 45 978.0
20260506214157 12 21 4.8 16.1 0.00 0.00 0.00 40 979.0
20260506213657 12 240 4.8 4.8 0.00 0.00 0.00 43 978.0
20260506213157 12 257 4.8 14.5 0.00 0.00 0.00 42 978.0
20260506212656 12 298 3.2 6.4 0.00 0.00 0.00 43 978.0
20260506212201 12 270 4.8 11.3 0.00 0.00 0.00 42 978.0
20260506211659 12 18 4.8 6.4 0.00 0.00 0.00 43 978.0
20260506211159 12 333 3.2 6.4 0.00 0.00 0.00 41 978.0
20260506210655 12 349 3.2 4.8 0.00 0.00 0.00 41 978.0
20260506210155 12 12 4.8 6.4 0.00 0.00 0.00 42 978.0
20260506205659 12 330 6.4 11.3 0.00 0.00 0.00 41 979.0
20260506205158 12 313 3.2 9.7 0.00 0.00 0.00 42 978.0
20260506204655 13 356 4.8 11.3 0.00 0.00 0.00 42 978.0
20260506204155 12 58 4.8 11.3 0.00 0.00 0.00 40 978.0
20260506203659 12 331 4.8 14.5 0.00 0.00 0.00 41 979.0
20260506203158 13 310 6.4 12.9 0.00 0.00 0.00 40 978.0
20260506202659 13 255 8.0 12.9 0.00 0.00 0.00 41 978.0
20260506202200 12 11 4.8 9.7 0.00 0.00 0.00 40 978.0
20260506201659 12 267 3.2 6.4 0.00 0.00 0.00 40 978.0
20260506201155 12 311 3.2 9.7 0.00 0.00 0.00 43 979.0
20260506200657 12 318 6.4 6.4 0.00 0.00 0.00 40 978.0
20260506200158 13 244 6.4 11.3 0.00 0.00 0.00 41 979.0
20260506195657 13 276 6.4 9.7 0.00 0.00 0.00 42 979.0
20260506195159 12 266 1.6 6.4 0.00 0.00 0.00 44 979.0
20260506194657 13 282 8.0 14.5 0.00 0.00 0.00 43 979.0
20260506194157 13 265 12.9 20.9 0.00 0.00 0.00 40 979.0
20260506193658 13 298 6.4 11.3 0.00 0.00 0.00 39 979.0
20260506193159 13 261 1.6 4.8 0.00 0.00 0.00 44 979.0
20260506192657 12 0 6.4 14.5 0.00 0.00 0.00 44 979.0
20260506192156 12 285 9.7 17.7 0.00 0.00 0.00 41 979.0
20260506191657 12 310 8.0 14.5 0.00 0.00 0.00 42 979.0
20260506191158 12 1 8.0 9.7 0.00 0.00 0.00 45 979.0
20260506190656 12 26 8.0 9.7 0.00 0.00 0.00 41 979.0
20260506190157 12 326 9.7 14.5 0.00 0.00 0.00 41 979.0
20260506185657 12 354 9.7 14.5 0.00 0.00 0.00 42 979.0
20260506185155 12 355 8.0 11.3 0.00 0.00 0.00 45 979.0
20260506184657 12 277 3.2 9.7 0.00 0.00 0.00 42 979.0
20260506184157 12 329 3.2 11.3 0.00 0.00 0.00 40 979.0
20260506183655 12 189 1.6 3.2 0.00 0.00 0.00 43 979.0
20260506183201 12 16 1.6 6.4 0.00 0.00 0.00 43 979.0
20260506182657 12 321 4.8 12.9 0.00 0.00 0.00 42 978.0
20260506182200 12 324 3.2 11.3 0.00 0.00 0.00 44 979.0
20260506181659 12 306 3.2 12.9 0.00 0.00 0.00 45 978.0
20260506181157 12 266 4.8 6.4 0.00 0.00 0.00 43 979.0
20260506180657 11 357 6.4 12.9 0.00 0.00 0.00 50 979.0
20260506180158 11 276 6.4 12.9 0.00 0.00 0.00 45 979.0
20260506175659 11 310 3.2 11.3 0.00 0.00 0.00 48 979.0
20260506175157 11 301 4.8 9.7 0.00 0.00 0.00 45 979.0
20260506174658 11 302 6.4 12.9 0.00 0.00 0.00 47 979.0
20260506174158 11 11 8.0 9.7 0.00 0.00 0.00 49 979.0
20260506173656 11 9 8.0 11.3 0.00 0.00 0.00 50 979.0
20260506173157 11 287 3.2 6.4 0.00 0.00 0.00 48 979.0
20260506172657 11 329 4.8 9.7 0.00 0.00 0.00 46 979.0
20260506172157 11 268 9.7 16.1 0.00 0.00 0.00 47 980.0
20260506171657 11 315 4.8 14.5 0.00 0.00 0.00 47 979.0
20260506171159 11 309 9.7 14.5 0.00 0.00 0.00 46 979.0
20260506170658 10 354 6.4 9.7 0.00 0.00 0.00 49 979.0
20260506170200 10 309 4.8 11.3 0.00 0.00 0.00 49 979.0
20260506165658 10 327 6.4 14.5 0.00 0.00 0.00 47 979.0
20260506165156 10 353 4.8 22.5 0.00 0.00 0.00 49 979.0
20260506164655 10 333 8.0 11.3 0.00 0.00 0.00 52 979.0
20260506164157 10 21 8.0 11.3 0.00 0.00 0.00 51 979.0
20260506163659 10 341 9.7 12.9 0.00 0.00 0.00 48 979.0
20260506163157 10 358 6.4 14.5 0.00 0.00 0.00 52 979.0
20260506162657 10 337 6.4 12.9 0.00 0.00 0.00 51 979.0
20260506161706 10 303 6.4 16.1 0.00 0.00 0.00 49 979.0
20260506161157 11 18 3.2 9.7 0.00 0.00 0.00 49 979.0
20260506160704 11 349 4.8 11.3 0.00 0.00 0.00 49 979.0
20260506160157 11 62 1.6 12.9 0.00 0.00 0.00 51 979.0
20260506155656 11 17 3.2 11.3 0.00 0.00 0.00 49 979.0
20260506155158 11 343 6.4 12.9 0.00 0.00 0.00 50 979.0
20260506154658 11 291 6.4 11.3 0.00 0.00 0.00 47 979.0
20260506154157 11 266 9.7 16.1 0.00 0.00 0.00 46 979.0
20260506153656 11 359 4.8 11.3 0.00 0.00 0.00 49 979.0
20260506153157 11 300 6.4 16.1 0.00 0.00 0.00 45 979.0
20260506152657 11 310 3.2 20.9 0.00 0.00 0.00 42 979.0
20260506152155 11 333 3.2 9.7 0.00 0.00 0.00 44 979.0
20260506151657 11 273 4.8 16.1 0.00 0.00 0.00 40 979.0
20260506151158 11 75 4.8 11.3 0.00 0.00 0.00 45 979.0
20260506150657 11 18 6.4 12.9 0.00 0.00 0.00 44 978.0
20260506150157 11 306 8.0 22.5 0.00 0.00 0.00 43 979.0
20260506145655 11 304 8.0 17.7 0.00 0.00 0.00 48 979.0
20260506145157 11 325 6.4 12.9 0.00 0.00 0.00 45 979.0
20260506144658 11 298 3.2 6.4 0.00 0.00 0.00 47 978.0
20260506144157 11 321 6.4 9.7 0.00 0.00 0.00 43 978.0
20260506143657 11 355 11.3 17.7 0.00 0.00 0.00 44 978.0
20260506143157 11 286 9.7 14.5 0.00 0.00 0.00 44 978.0
20260506142657 11 254 9.7 14.5 0.00 0.00 0.00 46 978.0
20260506142200 11 355 8.0 14.5 0.00 0.00 0.00 49 978.0
20260506141657 11 333 3.2 6.4 0.00 0.00 0.00 47 978.0
20260506141205 11 336 6.4 12.9 0.00 0.00 0.00 47 978.0
20260506140658 11 32 4.8 11.3 0.00 0.00 0.00 48 978.0
20260506140157 11 359 4.8 11.3 0.00 0.00 0.00 45 978.0
20260506135658 11 316 6.4 12.9 0.00 0.00 0.00 43 978.0
20260506135157 11 296 4.8 11.3 0.00 0.00 0.00 45 978.0
20260506134658 11 33 4.8 11.3 0.00 0.00 0.00 47 978.0
20260506134157 11 344 8.0 12.9 0.00 0.00 0.00 45 978.0
20260506133657 11 263 4.8 11.3 0.00 0.00 0.00 48 978.0
20260506133157 10 324 8.0 16.1 0.00 0.00 0.00 47 978.0
20260506132657 10 290 6.4 11.3 0.00 0.00 0.00 52 978.0
20260506132157 10 294 4.8 16.1 0.00 0.00 0.00 50 978.0
20260506131657 10 240 6.4 12.9 0.00 0.00 0.00 53 977.0
20260506131158 10 285 4.8 6.4 0.00 0.00 0.00 53 978.0
20260506130657 10 301 3.2 6.4 0.00 0.00 0.00 53 978.0
20260506130158 10 251 12.9 16.1 0.00 0.00 0.00 51 978.0
20260506125659 10 305 4.8 11.3 0.00 0.00 0.00 51 978.0
20260506125155 9 347 6.4 9.7 0.00 0.00 0.00 56 977.0
20260506124659 9 307 4.8 6.4 0.00 0.00 0.00 55 977.0
20260506124157 8 287 4.8 9.7 0.00 0.00 0.00 56 977.0
20260506123657 8 294 4.8 11.3 0.00 0.00 0.00 55 977.0
20260506123201 9 255 4.8 14.5 0.00 0.00 0.00 54 977.0
20260506122657 8 326 3.2 4.8 0.00 0.00 0.00 58 977.0
20260506122158 8 305 6.4 11.3 0.00 0.00 0.00 59 977.0
20260506121659 7 322 3.2 9.7 0.00 0.00 0.00 61 977.0
20260506121157 7 231 1.6 4.8 0.00 0.00 0.00 63 977.0
20260506120700 6 324 1.6 6.4 0.00 0.00 0.00 64 977.0
20260506120157 6 10 1.6 3.2 0.00 0.00 0.00 64 977.0
20260506115659 6 268 1.6 1.6 0.00 0.00 0.00 64 977.0
20260506115200 6 291 1.6 3.2 0.00 0.00 0.00 64 977.0
20260506114657 6 274 1.6 1.6 0.00 0.00 0.00 64 976.0
20260506114159 6 265 3.2 4.8 0.00 0.00 0.00 65 977.0
20260506113659 6 279 3.2 4.8 0.00 0.00 0.00 65 977.0
20260506113157 6 271 3.2 4.8 0.00 0.00 0.00 65 977.0
20260506112700 6 228 1.6 3.2 0.00 0.00 0.00 66 977.0
20260506112156 5 223 0.0 3.2 0.00 0.00 0.00 66 977.0
20260506111658 5 216 1.6 1.6 0.00 0.00 0.00 68 977.0
20260506111157 5 231 0.0 3.2 0.00 0.00 0.00 67 976.0
20260506110659 5 238 1.6 1.6 0.00 0.00 0.00 67 976.0
20260506110157 5 270 3.2 3.2 0.00 0.00 0.00 68 976.0
20260506105658 5 247 0.0 1.6 0.00 0.00 0.00 69 976.0
20260506105200 5 243 0.0 3.2 0.00 0.00 0.00 67 976.0
20260506104657 6 242 0.0 0.0 0.00 0.00 0.00 66 976.0
20260506104158 6 305 0.0 1.6 0.00 0.00 0.00 65 976.0
20260506103657 6 260 0.0 0.0 0.00 0.00 0.00 64 976.0
20260506103157 6 264 3.2 4.8 0.00 0.00 0.00 63 976.0
20260506102658 6 240 1.6 3.2 0.00 0.00 0.00 64 976.0
20260506102157 6 295 1.6 3.2 0.00 0.00 0.00 63 976.0
20260506101656 7 254 1.6 1.6 0.00 0.00 0.00 62 976.0
20260506101158 7 300 1.6 3.2 0.00 0.00 0.00 63 976.0
20260506100658 7 254 1.6 3.2 0.00 0.00 0.00 62 976.0
20260506100159 7 268 1.6 3.2 0.00 0.00 0.00 62 976.0
20260506095657 7 275 3.2 6.4 0.00 0.00 0.00 62 976.0
20260506095158 7 250 3.2 6.4 0.00 0.00 0.00 62 976.0
20260506094659 7 329 1.6 4.8 0.00 0.00 0.00 62 976.0
20260506094159 7 264 3.2 3.2 0.00 0.00 0.00 62 976.0
20260506093657 7 276 3.2 4.8 0.00 0.00 0.00 62 975.0
20260506093155 7 246 1.6 3.2 0.00 0.00 0.00 63 976.0
20260506092659 7 276 4.8 6.4 0.00 0.00 0.00 62 975.0
20260506092159 7 329 1.6 3.2 0.00 0.00 0.00 63 975.0
20260506091657 7 256 1.6 1.6 0.00 0.00 0.00 63 975.0
20260506091157 7 242 0.0 3.2 0.00 0.00 0.00 61 975.0
20260506090658 7 307 1.6 3.2 0.00 0.00 0.00 61 975.0
20260506090200 7 271 1.6 4.8 0.00 0.00 0.00 61 975.0
20260506085659 7 305 1.6 6.4 0.00 0.00 0.00 61 975.0
20260506085200 7 215 1.6 4.8 0.00 0.00 0.00 62 975.0
20260506084657 7 299 1.6 1.6 0.00 0.00 0.00 63 975.0
20260506084201 7 280 1.6 3.2 0.00 0.00 0.00 63 975.0
20260506083659 7 346 1.6 4.8 0.00 0.00 0.00 63 975.0
20260506083200 7 306 3.2 4.8 0.00 0.00 0.00 62 975.0
20260506082657 7 294 1.6 4.8 0.00 0.00 0.00 62 975.0
20260506082200 7 289 1.6 4.8 0.00 0.00 0.00 63 975.0
20260506081658 7 276 1.6 3.2 0.00 0.00 0.00 63 975.0
20260506081156 7 343 1.6 6.4 0.00 0.00 0.00 63 975.0
20260506080657 7 1 3.2 4.8 0.00 0.00 0.00 63 975.0
20260506080157 7 263 1.6 3.2 0.00 0.00 0.00 64 975.0
20260506073159 7 204 0.0 3.2 0.00 0.00 0.00 62 975.0
20260506072700 7 267 1.6 3.2 0.00 0.00 0.00 62 975.0
20260506072155 7 345 3.2 3.2 0.00 0.00 0.00 62 975.0
20260506071659 7 329 1.6 1.6 0.00 0.00 0.00 62 975.0
20260506071158 7 216 0.0 3.2 0.00 0.00 0.00 62 975.0
20260506070655 7 295 1.6 3.2 0.00 0.00 0.00 62 975.0
20260506070159 7 292 1.6 3.2 0.00 0.00 0.00 63 975.0
20260506062157 8 248 1.6 3.2 0.00 0.00 0.00 60 975.0
20260506061656 8 233 0.0 0.0 0.00 0.00 0.00 60 976.0
20260506061159 8 230 1.6 1.6 0.00 0.00 0.00 60 975.0
20260506060657 8 333 1.6 3.2 0.00 0.00 0.00 59 975.0
20260506060158 8 263 4.8 9.7 0.00 0.00 0.00 59 976.0
20260506051157 8 250 1.6 3.2 0.00 0.00 0.00 58 975.0
20260506050657 8 263 1.6 4.8 0.00 0.00 0.00 58 975.0
20260506050157 8 233 0.0 3.2 0.00 0.00 0.00 58 975.0
20260506044657 8 260 1.6 3.2 0.00 0.00 0.00 60 975.0
20260506044156 8 266 3.2 4.8 0.00 0.00 0.00 59 975.0
20260506043657 8 214 0.0 1.6 0.00 0.00 0.00 60 975.0
20260506043202 8 208 0.0 4.8 0.00 0.00 0.00 59 975.0
20260506042656 8 217 0.0 1.6 0.00 0.00 0.00 59 975.0
20260506042156 8 208 1.6 3.2 0.00 0.00 0.00 59 975.0
20260506041657 8 241 1.6 3.2 0.00 0.00 0.00 59 975.0
20260506041157 8 264 4.8 4.8 0.00 0.00 0.00 58 975.0
20260506040655 8 275 1.6 3.2 0.00 0.00 0.00 57 975.0
20260506040158 8 263 1.6 3.2 0.00 0.00 0.00 58 975.0
20260506035655 8 277 3.2 4.8 0.00 0.00 0.00 57 975.0
20260506035156 8 243 1.6 4.8 0.00 0.00 0.00 59 975.0
20260506034656 8 241 0.0 3.2 0.00 0.00 0.00 59 975.0
20260506034158 8 256 1.6 4.8 0.00 0.00 0.00 58 975.0
20260506033657 8 270 0.0 3.2 0.00 0.00 0.00 61 975.0
20260506033156 8 229 0.0 1.6 0.00 0.00 0.00 61 975.0
20260506032657 8 225 0.0 0.0 0.00 0.00 0.00 60 975.0
20260506032156 8 309 0.0 1.6 0.00 0.00 0.00 59 975.0
20260506031655 8 218 0.0 0.0 0.00 0.00 0.00 58 975.0
20260506031159 8 219 0.0 0.0 0.00 0.00 0.00 57 975.0
20260506030656 8 216 0.0 1.6 0.00 0.00 0.00 58 975.0
20260506030157 8 215 0.0 3.2 0.00 0.00 0.00 57 975.0
20260506025657 8 216 0.0 3.2 0.00 0.00 0.00 56 975.0
20260506025201 8 215 0.0 0.0 0.00 0.00 0.00 58 975.0
20260506024659 8 234 1.6 1.6 0.00 0.00 0.00 58 975.0
20260506024158 8 256 1.6 1.6 0.00 0.00 0.00 58 975.0
20260506023655 8 201 0.0 0.0 0.00 0.00 0.00 57 975.0
20260506023157 8 201 0.0 0.0 0.00 0.00 0.00 56 975.0
20260506022656 8 201 0.0 0.0 0.00 0.00 0.00 57 975.0
20260506022157 9 201 0.0 0.0 0.00 0.00 0.00 56 975.0
20260506021657 9 223 1.6 1.6 0.00 0.00 0.00 55 975.0
20260506021157 9 254 1.6 1.6 0.00 0.00 0.00 54 975.0
20260506020659 9 241 0.0 1.6 0.00 0.00 0.00 53 975.0
20260506020159 9 216 0.0 1.6 0.00 0.00 0.00 54 975.0
20260506015655 9 300 0.0 1.6 0.00 0.00 0.00 52 975.0
20260506015157 9 240 0.0 1.6 0.00 0.00 0.00 53 975.0
20260506014655 9 257 1.6 4.8 0.00 0.00 0.00 52 975.0
20260506014157 9 251 1.6 9.7 0.00 0.00 0.00 51 975.0
20260506013655 9 238 0.0 3.2 0.00 0.00 0.00 54 975.0
20260506013156 9 303 1.6 3.2 0.00 0.00 0.00 52 975.0
20260506012658 9 342 8.0 9.7 0.00 0.00 0.00 53 975.0
20260506012205 9 14 0.0 3.2 0.00 0.00 0.00 53 974.0
20260506011658 9 202 0.0 3.2 0.00 0.00 0.00 54 975.0
20260506011159 9 221 0.0 1.6 0.00 0.00 0.00 55 974.0
20260506010656 10 208 0.0 1.6 0.00 0.00 0.00 55 974.0
20260506010157 10 204 1.6 3.2 0.00 0.00 0.00 51 975.0
20260506005657 10 218 0.0 0.0 0.00 0.00 0.00 51 974.0
20260506005159 10 230 0.0 1.6 0.00 0.00 0.00 51 974.0
20260506004657 10 232 1.6 4.8 0.00 0.00 0.00 49 974.0
20260506004157 10 284 3.2 9.7 0.00 0.00 0.00 48 974.0